Biloxi, MS

2:33 PM CDT on March 29, 2017 (GMT -0500)
Keesler Air Force Base

Weather History for KBIX - January, 2012

Change the Weather History Date:

Monday, January 23, 2012

  Actual Average Record
Temperature  
Mean Temperature 64 °F -  
Max Temperature 69 °F 62 °F 79 °F (1982)
Min Temperature 59 °F 45 °F 25 °F (1960)
Degree Days  
Heating Degree Days 1    
Growing Degree Days 14 (Base 50)    
Moisture  
Dew Point 66 °F    
Average Humidity 99    
Maximum Humidity 100    
Minimum Humidity 81    
Precipitation  
Precipitation 0.09 in - - ()
Sea Level Pressure  
Sea Level Pressure 30.00 in    
Wind  
Wind Speed 12 mph (SSW)    
Max Wind Speed 16 mph    
Max Gust Speed 23 mph    
Visibility 4 miles    
Events Fog , Rain    
Averages and records for this station are not official NWS values.
T = Trace of Precipitation, MM = Missing Value Source: NWS Daily Summary

Daily Weather History Graph

Daily Weather History Graph

Search for Another Location

Airport or City:

Trip Planner

Search our weather history database for the weather conditions in past years. The results will help you decide how hot, cold, wet, or windy it might be!

Date:

Astronomy

Jan. 23, 2012 Rise Set
Actual Time 6:51 AM CST 5:23 PM CST
Civil Twilight 6:25 AM CST 5:49 PM CST
Nautical Twilight 5:56 AM CST 6:18 PM CST
Astronomical Twilight 5:27 AM CST 6:47 PM CST
Moon 6:51 AM CST (1/23) 6:05 PM CST (1/23)
Length of Visible Light 11h 23m
Length of Day
10h 32m
New Moon, 0% of the Moon is Illuminated
Jan 23
New Moon
Jan 30
First Quarter
Feb 7
Full
Feb 14
Last Quarter
Feb 21
New

Hourly Weather History & Observations

Time (CST) Temp. Dew Point Humidity Pressure Visibility Wind Dir Wind Speed Gust Speed Precip Events Conditions
12:07 AM 68.0 °F 68.0 °F 100% 29.99 in 10.0 mi South 12.7 mph - N/A   Mostly Cloudy
12:17 AM 68.0 °F 68.0 °F 100% 29.99 in 10.0 mi South 12.7 mph - N/A   Overcast
12:24 AM 66.2 °F 66.2 °F 100% 29.99 in 10.0 mi South 12.7 mph - N/A   Overcast
12:25 AM 66.2 °F 66.2 °F 100% 29.98 in 10.0 mi South 12.7 mph - N/A   Overcast
12:29 AM 68.0 °F 68.0 °F 100% 29.98 in 10.0 mi South 12.7 mph - N/A   Overcast
12:36 AM 68.0 °F 68.0 °F 100% 29.98 in 10.0 mi South 12.7 mph - N/A   Overcast
12:46 AM 68.0 °F 68.0 °F 100% 29.99 in 10.0 mi South 13.8 mph - N/A   Overcast
12:47 AM 68.0 °F 68.0 °F 100% 29.99 in 10.0 mi South 12.7 mph - N/A   Overcast
12:55 AM 67.1 °F 67.1 °F 100% 29.99 in 10.0 mi South 13.8 mph 20.7 mph N/A   Mostly Cloudy
12:59 AM 68.0 °F 68.0 °F 100% 29.99 in 10.0 mi South 12.7 mph 20.7 mph N/A   Mostly Cloudy
1:03 AM 68.0 °F 68.0 °F 100% 29.99 in 10.0 mi South 12.7 mph - N/A   Mostly Cloudy
1:07 AM 68.0 °F 68.0 °F 100% 29.99 in 10.0 mi South 15.0 mph 21.9 mph N/A   Mostly Cloudy
1:15 AM 68.0 °F 68.0 °F 100% 29.99 in 8.0 mi South 15.0 mph 21.9 mph N/A   Overcast
1:17 AM 68.0 °F 68.0 °F 100% 29.99 in 7.0 mi South 15.0 mph - N/A   Overcast
1:24 AM 68.0 °F 68.0 °F 100% 29.99 in 4.0 mi South 13.8 mph 23.0 mph N/A   Overcast
1:26 AM 68.0 °F 68.0 °F 100% 29.99 in 4.0 mi South 12.7 mph 23.0 mph N/A   Overcast
1:35 AM 68.0 °F 68.0 °F 100% 29.99 in 2.5 mi South 15.0 mph - N/A   Overcast
1:37 AM 68.0 °F 68.0 °F 100% 29.99 in 2.0 mi South 16.1 mph - N/A   Overcast
1:40 AM 68.0 °F 68.0 °F 100% 29.99 in 1.8 mi South 13.8 mph - N/A   Overcast
1:41 AM 68.0 °F 68.0 °F 100% 29.99 in 1.8 mi South 13.8 mph - N/A   Overcast
1:42 AM 68.0 °F 68.0 °F 100% 29.99 in 1.5 mi South 13.8 mph - N/A   Overcast
1:47 AM 68.0 °F 68.0 °F 100% 29.99 in 1.8 mi South 13.8 mph - N/A   Overcast
1:55 AM 67.5 °F 67.5 °F 100% 29.99 in 1.8 mi South 16.1 mph - N/A   Overcast
1:58 AM 68.0 °F 68.0 °F 100% 29.99 in 1.5 mi South 15.0 mph - N/A   Overcast
2:01 AM 68.0 °F 68.0 °F 100% 29.99 in 1.2 mi South 13.8 mph - N/A   Overcast
2:04 AM 68.0 °F 68.0 °F 100% 29.99 in 1.0 mi South 13.8 mph - N/A   Mist
2:08 AM 68.0 °F 68.0 °F 100% 29.99 in 0.8 mi South 13.8 mph - N/A   Mist
2:14 AM 68.0 °F 68.0 °F 100% 29.99 in 0.8 mi South 15.0 mph - N/A   Mist
2:26 AM 68.0 °F 68.0 °F 100% 29.99 in 0.8 mi South 12.7 mph - N/A   Mist
2:33 AM 66.2 °F 66.2 °F 100% 29.99 in 1.0 mi South 11.5 mph - N/A   Mist
2:46 AM 66.2 °F 66.2 °F 100% 29.99 in 0.8 mi SSW 12.7 mph - N/A   Mist
2:54 AM 66.2 °F 66.2 °F 100% 29.99 in 0.8 mi SSW 11.5 mph - N/A   Mist
2:55 AM 66.4 °F 66.4 °F 100% 29.99 in 0.8 mi SSW 12.7 mph - N/A   Mist
3:27 AM 66.2 °F 66.2 °F 100% 29.98 in 0.8 mi SSW 9.2 mph - N/A   Mist
3:32 AM 66.2 °F 66.2 °F 100% 29.98 in 1.0 mi SSW 12.7 mph - N/A   Mist
3:38 AM 66.2 °F 66.2 °F 100% 29.98 in 1.0 mi SSW 11.5 mph - N/A   Mist
3:41 AM 66.2 °F 66.2 °F 100% 29.97 in 1.2 mi SSW 13.8 mph - N/A   Overcast
3:45 AM 66.2 °F 66.2 °F 100% 29.98 in 1.5 mi SSW 13.8 mph - N/A   Overcast
3:48 AM 66.2 °F 66.2 °F 100% 29.98 in 1.8 mi SSW 15.0 mph - N/A   Overcast
3:51 AM 66.2 °F 66.2 °F 100% 29.98 in 2.0 mi SSW 12.7 mph - N/A   Overcast
3:55 AM 66.2 °F 66.2 °F 100% 29.98 in 2.0 mi SSW 13.8 mph - N/A   Overcast
4:04 AM 66.2 °F 66.2 °F 100% 29.98 in 1.8 mi SW 11.5 mph - N/A   Overcast
4:05 AM 66.2 °F 66.2 °F 100% 29.98 in 1.8 mi SW 10.4 mph - N/A   Overcast
4:07 AM 66.2 °F 66.2 °F 100% 29.98 in 1.5 mi SSW 11.5 mph - N/A   Overcast
4:15 AM 66.2 °F 66.2 °F 100% 29.98 in 1.5 mi SW 11.5 mph - N/A   Overcast
4:16 AM 66.2 °F 66.2 °F 100% 29.98 in 1.8 mi SW 12.7 mph - N/A   Overcast
4:39 AM 66.2 °F 66.2 °F 100% 29.98 in 2.0 mi SW 12.7 mph - N/A   Overcast
4:44 AM 66.2 °F 66.2 °F 100% 29.99 in 2.5 mi SW 11.5 mph - N/A   Overcast
4:55 AM 66.2 °F 66.2 °F 100% 29.98 in 2.5 mi SSW 11.5 mph - N/A   Overcast
4:56 AM 66.2 °F 66.2 °F 100% 29.98 in 2.0 mi SSW 11.5 mph - N/A   Overcast
4:59 AM 66.2 °F 66.2 °F 100% 29.98 in 1.8 mi SSW 11.5 mph - N/A   Overcast
5:02 AM 66.2 °F 66.2 °F 100% 29.99 in 1.5 mi SW 11.5 mph - N/A   Overcast
5:06 AM 66.2 °F 66.2 °F 100% 29.99 in 1.2 mi SW 12.7 mph - N/A   Overcast
5:13 AM 66.2 °F 66.2 °F 100% 29.99 in 1.0 mi SW 12.7 mph - N/A   Mist
5:17 AM 66.2 °F 66.2 °F 100% 29.99 in 1.0 mi SW 12.7 mph - N/A   Mist
5:32 AM 66.2 °F 66.2 °F 100% 29.99 in 0.8 mi SW 12.7 mph - N/A   Mist
5:37 AM 66.2 °F 66.2 °F 100% 29.99 in 0.8 mi SW 12.7 mph - N/A   Mist
5:39 AM 66.2 °F 66.2 °F 100% 29.99 in 0.5 mi SW 13.8 mph - N/A Fog Fog
5:47 AM 66.2 °F 66.2 °F 100% 29.99 in 0.8 mi SW 12.7 mph - N/A   Mist
5:55 AM 65.5 °F 65.5 °F 100% 29.99 in 0.8 mi SSW 15.0 mph - N/A   Mist
5:57 AM 66.2 °F 66.2 °F 100% 29.99 in 0.8 mi SSW 15.0 mph - N/A   Mist
6:02 AM 66.2 °F 66.2 °F 100% 29.99 in 1.0 mi SSW 16.1 mph - N/A   Mist
6:03 AM 66.2 °F 66.2 °F 100% 29.99 in 1.0 mi SSW 16.1 mph - N/A   Mist
6:08 AM 66.2 °F 66.2 °F 100% 30.00 in 1.2 mi SW 16.1 mph - N/A   Overcast
6:21 AM 66.2 °F 66.2 °F 100% 29.99 in 1.0 mi SSW 15.0 mph - N/A   Mist
6:22 AM 66.2 °F 66.2 °F 100% 29.99 in 1.0 mi SSW 15.0 mph - N/A Rain Light Rain
6:26 AM 66.2 °F 66.2 °F 100% 29.99 in 1.0 mi SSW 16.1 mph 21.9 mph N/A Rain Light Rain
6:31 AM 66.2 °F 66.2 °F 100% 30.00 in 1.0 mi SW 16.1 mph 21.9 mph N/A   Mist
6:44 AM 64.4 °F 64.4 °F 100% 30.00 in 0.8 mi SW 13.8 mph - N/A   Mist
6:50 AM 64.4 °F 64.4 °F 100% 30.01 in 0.8 mi SW 11.5 mph - N/A   Mist
6:55 AM 64.9 °F 64.9 °F 100% 30.01 in 0.5 mi SW 11.5 mph - 0.00 in Fog Fog
6:59 AM 64.4 °F 64.4 °F 100% 30.01 in 0.2 mi SW 12.7 mph - N/A Fog Fog
7:12 AM 64.4 °F 64.4 °F 100% 30.01 in 0.2 mi SW 10.4 mph - N/A Fog , Rain Light Rain
7:15 AM 64.4 °F 64.4 °F 100% 30.01 in 0.2 mi SW 10.4 mph - N/A Fog , Rain Light Rain
7:16 AM 64.4 °F 64.4 °F 100% 30.01 in 0.5 mi SSW 11.5 mph - N/A Fog , Rain Light Rain
7:22 AM 64.4 °F 64.4 °F 100% 30.01 in 0.5 mi SSW 11.5 mph - N/A Fog Fog
7:33 AM 64.4 °F 64.4 °F 100% 30.01 in 0.5 mi SW 10.4 mph - N/A Fog Fog
7:36 AM 64.4 °F 64.4 °F 100% 30.01 in 0.8 mi SW 11.5 mph - N/A   Mist
7:37 AM 64.4 °F 64.4 °F 100% 30.01 in 0.8 mi SW 11.5 mph - N/A   Mist
7:38 AM 64.4 °F 64.4 °F 100% 30.01 in 0.5 mi SW 10.4 mph - N/A Fog Fog
7:44 AM 64.4 °F 64.4 °F 100% 30.01 in 0.5 mi SW 12.7 mph - N/A Fog Fog
7:55 AM 64.9 °F 64.9 °F 100% 30.01 in 0.2 mi SW 12.7 mph - 0.00 in Fog Fog
8:06 AM 64.4 °F 64.4 °F 100% 30.01 in 0.2 mi SW 10.4 mph - N/A Fog Fog
8:07 AM 64.4 °F 64.4 °F 100% 30.01 in 0.2 mi SW 11.5 mph - N/A Fog Fog
8:09 AM 64.4 °F 64.4 °F 100% 30.02 in 0.2 mi SW 11.5 mph - N/A Fog Fog
8:10 AM 64.4 °F 64.4 °F 100% 30.02 in 0.2 mi SW 12.7 mph - N/A Fog Fog
8:55 AM 66.2 °F 66.2 °F 100% 30.02 in 0.2 mi SSW 11.5 mph - N/A Fog Fog
9:55 AM 66.2 °F 66.2 °F 100% 30.02 in 0.2 mi SSW 10.4 mph - N/A Fog Fog
10:03 AM 66.2 °F 66.2 °F 100% 30.03 in 0.2 mi South 11.5 mph - N/A Fog , Rain Light Rain Showers
10:06 AM 66.2 °F 66.2 °F 100% 30.05 in 3.0 mi WSW 10.4 mph - N/A Rain Light Rain Showers
10:19 AM 66.2 °F 66.2 °F 100% 30.04 in 7.0 mi WSW 10.4 mph - N/A   Overcast
10:40 AM 66.2 °F 66.2 °F 100% 30.05 in 10.0 mi Variable 4.6 mph - N/A   Overcast
10:42 AM 68.0 °F 68.0 °F 100% 30.04 in 8.0 mi WSW 4.6 mph - N/A Rain Light Rain
10:50 AM 68.0 °F 68.0 °F 100% 30.04 in 5.0 mi WSW 3.5 mph - N/A Rain Light Rain
10:55 AM 68.4 °F 68.4 °F 100% 30.04 in 8.0 mi SW 4.6 mph - 0.04 in Rain Light Rain
10:58 AM 68.0 °F 68.0 °F 100% 30.04 in 9.0 mi WSW 3.5 mph - N/A   Overcast
11:16 AM 69.8 °F 69.8 °F 100% 30.03 in 8.0 mi SW 4.6 mph - N/A   Mostly Cloudy
11:21 AM 69.8 °F 69.8 °F 100% 30.02 in 8.0 mi Calm Calm - N/A   Mostly Cloudy
11:46 AM 69.8 °F 69.8 °F 100% 30.01 in 10.0 mi SSW 5.8 mph - N/A   Scattered Clouds
11:55 AM 68.5 °F 68.5 °F 100% 30.01 in 10.0 mi South 8.1 mph - 0.00 in   Mostly Cloudy
12:54 PM 68.0 °F 68.0 °F 100% 30.00 in 3.0 mi WSW 8.1 mph - N/A Rain Light Rain Showers
12:55 PM 68.4 °F 68.4 °F 100% 30.00 in 3.0 mi WSW 8.1 mph - 0.00 in Rain Light Rain Showers
1:19 PM 68.0 °F 68.0 °F 100% 29.99 in 10.0 mi SW 3.5 mph - N/A   Mostly Cloudy
1:44 PM 68.0 °F 68.0 °F 100% 30.00 in 3.0 mi SW 10.4 mph - N/A Rain Light Rain
1:55 PM 66.6 °F 66.6 °F 100% 29.99 in 6.0 mi SSW 6.9 mph - 0.05 in   Overcast
2:55 PM 68.7 °F 67.8 °F 97% 29.99 in 10.0 mi Calm Calm - 0.00 in   Mostly Cloudy
3:55 PM 69.6 °F 65.8 °F 88% 29.99 in 10.0 mi South 4.6 mph - N/A   Mostly Cloudy
4:55 PM 68.7 °F 63.7 °F 84% 30.00 in 10.0 mi Calm Calm - N/A   Clear
5:55 PM 64.0 °F 64.0 °F 100% 30.01 in 10.0 mi Calm Calm - N/A   Clear
6:55 PM 63.5 °F 63.5 °F 100% 30.03 in 10.0 mi Calm Calm - N/A   Clear
7:55 PM 62.1 °F 62.1 °F 100% 30.05 in 10.0 mi ESE 3.5 mph - N/A   Clear
8:55 PM 62.2 °F 62.2 °F 100% 30.06 in 10.0 mi Variable 3.5 mph - N/A   Partly Cloudy
9:55 PM 60.4 °F 56.1 °F 86% 30.07 in 10.0 mi NE 4.6 mph - N/A   Clear
10:55 PM 59.4 °F 54.3 °F 83% 30.08 in 10.0 mi NE 5.8 mph - N/A   Clear
11:55 PM 59.2 °F 53.4 °F 81% 30.08 in 10.0 mi NE 5.8 mph - N/A   Scattered Clouds